This demonstration page uses our WeatherBlox Daily Observations layout. Learn more.

Left ArrowRight Arrow

44.8408, -93.29828

Hourly Observations for September 12, 2022

Temp ( °F °C ) Dew Point ( °F °C ) Humidity (%) Winds ( mph kmh ) Pressure ( in mb ) Visibility ( mi km ) Precip ( " mm )
12:53 am 00:53 Mostly Cloudy 58 14.4 48 8.9 70 70 NW 3 6 30.04 1017 10 16 0.00 0.00
1:53 am 01:53 Mostly Cloudy 58 14.4 48 8.9 70 70 WSW 3 6 30.03 1017 10 16 0.00 0.00
2:53 am 02:53 Mostly Cloudy 55 12.8 48 8.9 77 77 Calm 30.01 1016 10 16 0.00 0.00
3:53 am 03:53 Partly Cloudy 54 12.2 48 8.9 80 80 Calm 30.01 1016 10 16 0.00 0.00
4:53 am 04:53 Partly Cloudy 54 12.2 47 8.3 77 77 NNW 3 6 30.00 1016 10 16 0.00 0.00
5:53 am 05:53 Partly Cloudy 51 10.6 47 8.3 86 86 Calm 30.00 1016 10 16 0.00 0.00
6:53 am 06:53 Partly Cloudy 52 11.1 47 8.3 83 83 WNW 3 6 29.99 1016 10 16 0.00 0.00
7:53 am 07:53 Mostly Sunny 55 12.8 48 8.9 77 77 Calm 30.00 1016 10 16 0.00 0.00
8:53 am 08:53 Mostly Sunny 59 15 49 9.4 69 69 NNW 5 7 30.00 1016 10 16 0.00 0.00
9:53 am 09:53 Mostly Sunny 65 18.3 47 8.3 52 52 N 7 11 30.00 1016 10 16 0.00 0.00
10:53 am 10:53 Partly Cloudy 69 20.6 47 8.3 45 45 N 8 13 29.99 1016 10 16 0.00 0.00
11:53 am 11:53 Partly Cloudy 70 21.1 45 7.2 41 41 NNW 8 13 29.98 1015 10 16 0.00 0.00
12:53 pm 12:53 Mostly Sunny 74 23.3 43 6.1 33 33 N 12 19 29.96 1014 10 16 0.00 0.00
1:53 pm 13:53 Mostly Sunny 75 23.9 43 6.1 32 32 NNW 8 13 29.93 1014 10 16 0.00 0.00
2:53 pm 14:53 Partly Cloudy 76 24.4 43 6.1 31 31 N 8 13 29.92 1013 10 16 0.00 0.00
3:53 pm 15:53 Partly Cloudy 77 25 44 6.7 31 31 N 14 22 29.91 1013 10 16 0.00 0.00
4:53 pm 16:53 Partly Cloudy 76 24.4 44 6.7 32 32 NW 5 7 29.90 1013 10 16 0.00 0.00
5:53 pm 17:53 Partly Cloudy 74 23.3 45 7.2 36 36 NNW 8 13 29.90 1012 10 16 0.00 0.00
6:53 pm 18:53 Mostly Sunny 72 22.2 45 7.2 38 38 VRB 6 9 29.89 1012 10 16 0.00 0.00
7:53 pm 19:53 Mostly Clear 70 21.1 46 7.8 42 42 Calm 29.89 1012 10 16 0.00 0.00
8:53 pm 20:53 Mostly Clear 66 18.9 48 8.9 52 52 Calm 29.90 1013 10 16 0.00 0.00
9:53 pm 21:53 Mostly Clear 65 18.3 50 10 58 58 Calm 29.90 1013 10 16 0.00 0.00
10:53 pm 22:53 Mostly Clear 63 17.2 50 10 63 63 Calm 29.90 1012 10 16 0.00 0.00
11:53 pm 23:53 Clear 61 16.1 50 10 67 67 Calm 29.90 1012 10 16 0.00 0.00

Powered by AerisWeather